Overview Statistics Trail Chart Weather Telemetry Raw packets
 

This is the latest recevied weather packets stored in our database for station/object SP9MUF-14. If no packets are shown the sender has not sent any weather packets the latest 10 day(s).

<< 4 5 6 7 8 9 10 >>
Time Temp. Humidity Pressure Rain* Wind** Luminosity Snow
1788589166 15.56° C 80% 1015.6 hPa 0.25 mm - 35 W/m² -
1788588864 15.56° C 82% 1015.5 hPa 0.25 mm - 58 W/m² -
1788588561 15.56° C 82% 1015.4 hPa 0.25 mm - 48 W/m² -
1788588259 15.56° C 80% 1015.4 hPa 0 mm - 38 W/m² -
1788587957 15.56° C 80% 1015.6 hPa 0 mm - 28 W/m² -
1788587655 16.67° C 80% 1015.5 hPa 0 mm - 38 W/m² -
1788587353 16.67° C 79% 1015.2 hPa 0 mm - 32 W/m² -
1788586749 16.67° C 77% 1015 hPa 0 mm - 45 W/m² -
1788586447 16.67° C 77% 1015.2 hPa 0 mm - 22 W/m² -
1788586145 16.67° C 78% 1015.2 hPa 0 mm - 14 W/m² -
1788585843 16.67° C 78% 1015.2 hPa 0 mm - 11 W/m² -
1788585540 16.67° C 76% 1015 hPa 0 mm - 8 W/m² -
1788585238 16.67° C 79% 1014.5 hPa 0 mm - 9 W/m² -
1788584936 16.67° C 78% 1014.7 hPa 0 mm - 15 W/m² -
1788584634 16.67° C 79% 1014.7 hPa 0 mm - 10 W/m² -
1788584332 16.67° C 80% 1014.5 hPa 0 mm - 7 W/m² -
1788583728 16.67° C 81% 1014.5 hPa 0 mm - 4 W/m² -
1788583426 16.67° C 82% 1014.7 hPa 0 mm - 5 W/m² -
1788582822 16.67° C 82% 1014.6 hPa 0 mm - 3 W/m² -
1788582519 16.67° C 82% 1014.6 hPa 0 mm - 2 W/m² -
1788582217 16.67° C 81% 1014.1 hPa 0 mm - 1 W/m² -
1788581915 16.67° C 81% 1014.1 hPa 0 mm - 1 W/m² -
1788581613 16.67° C 80% 1014.1 hPa 0 mm - 0 W/m² -
1788581009 16.67° C 80% 1013.6 hPa 0 mm - 0 W/m² -
1788580404 16.67° C 81% 1013.5 hPa 0 mm - 0 W/m² -

* Rain latest hour (hover to see other rain measurements)
** Current wind speed in m/s (hover to see current wind gust speed)